Weather History for Hartford, CT

Change the Weather History Date:

Thursday, August 22, 2013

  Actual Average Record
Temperature  
Mean Temperature 73 °F -  
Max Temperature 81 °F 79 °F 91 °F (1976)
Min Temperature 66 °F 57 °F 43 °F (1982)
Cooling Degree Days 8    
Growing Degree Days 23 (Base 50)    
Moisture  
Dew Point 69 °F    
Average Humidity 86    
Maximum Humidity 94    
Minimum Humidity 71    
Precipitation  
Precipitation 0.02 in - - ()
Sea Level Pressure  
Sea Level Pressure 29.96 in    
Wind  
Wind Speed 3 mph (South)    
Max Wind Speed 10 mph    
Max Gust Speed -    
Visibility 7 miles    
Events Rain    
Averages and records for this station are not official NWS values.
T = Trace of Precipitation, MM = Missing Value Source: NWS Daily Summary

Daily Weather History Graph

Daily Weather History Graph

Search for Another Location

Airport:

Trip Planner

Search our weather history database for the weather conditions in past years. The results will help you decide how hot, cold, wet, or windy it might be!

Date:

Astronomy

Aug. 22, 2013 Rise Set
Actual Time 6:06 AM EDT 7:39 PM EDT
Civil Twilight 5:37 AM EDT 8:08 PM EDT
Nautical Twilight 5:01 AM EDT 8:44 PM EDT
Astronomical Twilight 4:23 AM EDT 9:21 PM EDT
Moon 8:19 PM EDT (8/22) 7:54 AM EDT (8/22)
Length of Visible Light 14h 31m
Length of Day
13h 33m
Waning Gibbous, 97% of the Moon is Illuminated
Aug 22
Waning Gibbous
Aug 28
Last Quarter
Sep 5
New
Sep 12
First Quarter
Sep 19
Full

Hourly Weather History & Observations

Time (EDT) Temp. Heat Index Dew Point Humidity Pressure Visibility Wind Dir Wind Speed Gust Speed Precip Events Conditions
12:53 AM 69.1 °F - 64.9 °F 87% 30.04 in 7.0 mi Calm Calm - N/A   Clear
1:53 AM 69.1 °F - 66.0 °F 90% 30.06 in 6.0 mi Calm Calm - N/A   Clear
2:53 AM 69.1 °F - 66.0 °F 90% 30.05 in 5.0 mi South 3.5 mph - N/A   Clear
3:53 AM 69.1 °F - 66.0 °F 90% 30.04 in 5.0 mi South 3.5 mph - N/A   Clear
4:53 AM 66.9 °F - 64.9 °F 93% 30.02 in 3.0 mi Calm Calm - N/A   Clear
5:53 AM 68.0 °F - 66.0 °F 93% 30.01 in 3.0 mi Calm Calm - N/A   Clear
6:12 AM 66.2 °F - 64.4 °F 94% 30.00 in 2.0 mi Calm Calm - N/A   Clear
6:22 AM 68.0 °F - 66.2 °F 94% 30.00 in 1.8 mi Calm Calm - N/A   Clear
6:31 AM 68.0 °F - 66.2 °F 94% 30.00 in 2.5 mi Calm Calm - N/A   Clear
6:53 AM 69.1 °F - 66.0 °F 90% 30.01 in 3.0 mi SSW 3.5 mph - N/A   Clear
7:53 AM 72.0 °F - 66.9 °F 84% 30.01 in 5.0 mi Calm Calm - N/A   Haze
8:53 AM 75.9 °F - 69.1 °F 79% 29.99 in 7.0 mi SSE 5.8 mph - N/A   Clear
9:53 AM 80.1 °F 83.2 °F 70.0 °F 71% 30.00 in 9.0 mi SSE 4.6 mph - N/A   Clear
10:53 AM 78.1 °F - 70.0 °F 76% 30.00 in 8.0 mi SSW 8.1 mph - N/A   Clear
11:53 AM 75.9 °F - 72.0 °F 87% 30.00 in 5.0 mi South 6.9 mph - 0.02 in Rain Light Rain
12:36 PM 75.2 °F - 71.6 °F 89% 29.99 in 4.0 mi SSW 9.2 mph - 0.00 in   Scattered Clouds
12:45 PM 75.2 °F - 71.6 °F 89% 29.98 in 6.0 mi Variable 6.9 mph - 0.00 in   Mostly Cloudy
12:53 PM 75.0 °F - 72.0 °F 90% 29.98 in 7.0 mi South 9.2 mph - 0.00 in   Mostly Cloudy
1:32 PM 75.2 °F - 71.6 °F 89% 29.97 in 10.0 mi SW 5.8 mph - N/A   Mostly Cloudy
1:51 PM 75.2 °F - 71.6 °F 89% 29.96 in 10.0 mi Variable 3.5 mph - N/A   Mostly Cloudy
1:53 PM 75.9 °F - 71.1 °F 85% 29.96 in 10.0 mi SSW 3.5 mph - N/A   Mostly Cloudy
2:53 PM 79.0 °F - 71.1 °F 77% 29.93 in 10.0 mi Variable 5.8 mph - 0.00 in   Scattered Clouds
3:53 PM 80.1 °F 83.2 °F 70.0 °F 71% 29.90 in 10.0 mi South 8.1 mph - N/A   Clear
4:53 PM 80.1 °F 83.2 °F 70.0 °F 71% 29.88 in 10.0 mi South 10.4 mph - N/A   Partly Cloudy
5:53 PM 79.0 °F - 69.1 °F 72% 29.87 in 10.0 mi South 6.9 mph - N/A   Partly Cloudy
6:53 PM 77.0 °F - 71.1 °F 82% 29.86 in 10.0 mi South 8.1 mph - N/A   Clear
7:53 PM 75.0 °F - 70.0 °F 84% 29.86 in 10.0 mi South 6.9 mph - N/A   Clear
8:53 PM 73.9 °F - 71.1 °F 91% 29.86 in 10.0 mi South 4.6 mph - N/A   Clear
9:53 PM 73.0 °F - 71.1 °F 93% 29.87 in 7.0 mi South 5.8 mph - N/A   Clear
10:53 PM 72.0 °F - 70.0 °F 93% 29.86 in 5.0 mi South 5.8 mph - N/A   Clear
11:53 PM 73.0 °F - 70.0 °F 90% 29.87 in 7.0 mi NW 3.5 mph - N/A   Overcast